TimeCST,TemperatureF,Dew PointF,Humidity,Sea Level PressureIn,VisibilityMPH,Wind Direction,Wind SpeedMPH,Gust SpeedMPH,PrecipitationIn,Events,Conditions,WindDirDegrees,DateUTC
12:35 AM,68.0,57.2,68,29.94,10.0,SSE,16.1,23.0,N/A,,Mostly Cloudy,160,2012-11-11 06:35:00
12:55 AM,68.0,57.2,68,29.94,10.0,SSE,15.0,19.6,N/A,,Scattered Clouds,150,2012-11-11 06:55:00
1:15 AM,68.0,59.0,73,29.92,10.0,SSE,12.7,18.4,N/A,,Mostly Cloudy,150,2012-11-11 07:15:00
1:35 AM,68.0,59.0,73,29.92,10.0,SSE,12.7,20.7,N/A,,Mostly Cloudy,150,2012-11-11 07:35:00
1:55 AM,68.0,59.0,73,29.92,10.0,SSE,11.5,19.6,N/A,,Overcast,150,2012-11-11 07:55:00
2:15 AM,66.2,59.0,78,29.90,10.0,SSE,12.7,-,N/A,,Mostly Cloudy,160,2012-11-11 08:15:00
2:35 AM,68.0,59.0,73,29.90,10.0,SSE,16.1,-,N/A,,Overcast,150,2012-11-11 08:35:00
2:55 AM,68.0,59.0,73,29.89,10.0,SE,12.7,20.7,N/A,,Overcast,140,2012-11-11 08:55:00
3:15 AM,66.2,59.0,78,29.89,10.0,SE,15.0,18.4,N/A,,Mostly Cloudy,140,2012-11-11 09:15:00
3:35 AM,66.2,59.0,78,29.89,10.0,SE,13.8,20.7,N/A,,Mostly Cloudy,130,2012-11-11 09:35:00
3:55 AM,66.2,59.0,78,29.88,10.0,SE,12.7,18.4,N/A,,Mostly Cloudy,140,2012-11-11 09:55:00
4:15 AM,66.2,59.0,78,29.88,10.0,SE,12.7,21.9,N/A,,Mostly Cloudy,130,2012-11-11 10:15:00
4:35 AM,66.2,59.0,78,29.88,10.0,SE,11.5,23.0,N/A,,Overcast,140,2012-11-11 10:35:00
4:55 AM,66.2,59.0,78,29.88,10.0,SSE,12.7,23.0,N/A,,Overcast,150,2012-11-11 10:55:00
5:15 AM,66.2,59.0,78,29.88,10.0,SE,15.0,20.7,N/A,,Mostly Cloudy,140,2012-11-11 11:15:00
5:35 AM,66.2,59.0,78,29.89,10.0,SE,12.7,23.0,N/A,,Mostly Cloudy,140,2012-11-11 11:35:00
5:55 AM,66.2,59.0,78,29.90,10.0,SE,13.8,20.7,N/A,,Overcast,140,2012-11-11 11:55:00
6:15 AM,66.2,59.0,78,29.91,10.0,SE,11.5,17.3,N/A,,Overcast,140,2012-11-11 12:15:00
6:35 AM,66.2,59.0,78,29.91,10.0,SE,10.4,-,N/A,,Overcast,130,2012-11-11 12:35:00
6:55 AM,66.2,59.0,78,29.92,10.0,SE,9.2,-,N/A,,Overcast,140,2012-11-11 12:55:00
7:35 AM,66.2,60.8,83,29.93,10.0,SE,9.2,-,N/A,,Overcast,140,2012-11-11 13:35:00
7:55 AM,66.2,60.8,83,29.92,10.0,SSE,13.8,19.6,N/A,,Mostly Cloudy,150,2012-11-11 13:55:00
8:15 AM,66.2,60.8,83,29.93,10.0,SE,12.7,-,N/A,,Scattered Clouds,140,2012-11-11 14:15:00
8:35 AM,64.4,60.8,88,29.94,10.0,SSE,12.7,-,N/A,,Mostly Cloudy,150,2012-11-11 14:35:00
8:55 AM,64.4,60.8,88,29.94,7.0,SSE,8.1,-,0.02,,Mostly Cloudy,150,2012-11-11 14:55:00
9:55 AM,64.4,60.8,88,29.93,7.0,SSE,13.8,-,N/A,,Overcast,150,2012-11-11 15:55:00
10:15 AM,64.4,62.6,94,29.93,10.0,SSE,11.5,-,N/A,,Overcast,150,2012-11-11 16:15:00
10:35 AM,64.4,62.6,94,29.91,10.0,SE,11.5,17.3,N/A,,Overcast,140,2012-11-11 16:35:00
10:55 AM,64.4,62.6,94,29.90,10.0,SSE,15.0,21.9,N/A,,Overcast,150,2012-11-11 16:55:00
11:15 AM,64.4,62.6,94,29.90,10.0,SSE,10.4,-,N/A,,Overcast,160,2012-11-11 17:15:00
11:35 AM,66.2,62.6,88,29.89,10.0,SSE,10.4,-,N/A,,Overcast,160,2012-11-11 17:35:00
11:55 AM,66.2,62.6,88,29.89,7.0,Calm,Calm,-,0.03,,Overcast,0,2012-11-11 17:55:00
12:15 PM,66.2,62.6,88,29.88,5.0,West,8.1,-,0.09,,Overcast,280,2012-11-11 18:15:00
12:35 PM,64.4,62.6,94,29.88,5.0,South,6.9,-,0.27,,Overcast,190,2012-11-11 18:35:00
12:55 PM,66.2,64.4,94,29.85,10.0,South,15.0,21.9,0.29,,Mostly Cloudy,170,2012-11-11 18:55:00
1:15 PM,68.0,64.4,88,29.82,10.0,South,10.4,16.1,N/A,,Scattered Clouds,180,2012-11-11 19:15:00
1:35 PM,68.0,64.4,88,29.86,7.0,WNW,24.2,31.1,0.01,,Scattered Clouds,300,2012-11-11 19:35:00
1:55 PM,60.8,55.4,82,29.88,10.0,NW,20.7,26.5,0.02,,Overcast,320,2012-11-11 19:55:00
2:15 PM,57.2,51.8,82,29.90,10.0,NNW,17.3,31.1,N/A,,Mostly Cloudy,330,2012-11-11 20:15:00
2:35 PM,55.4,50.0,82,29.92,10.0,NNW,17.3,25.3,N/A,,Mostly Cloudy,330,2012-11-11 20:35:00
2:55 PM,53.6,50.0,88,29.92,10.0,North,11.5,18.4,N/A,,Mostly Cloudy,350,2012-11-11 20:55:00
3:15 PM,53.6,50.0,88,29.94,10.0,North,10.4,-,N/A,,Overcast,350,2012-11-11 21:15:00
3:35 PM,53.6,50.0,88,29.93,10.0,North,10.4,16.1,N/A,,Overcast,10,2012-11-11 21:35:00
3:55 PM,53.6,48.2,82,29.95,10.0,North,9.2,-,N/A,,Overcast,360,2012-11-11 21:55:00
4:15 PM,53.6,48.2,82,29.95,10.0,North,4.6,-,N/A,,Overcast,350,2012-11-11 22:15:00
4:35 PM,53.6,48.2,82,29.97,10.0,WNW,3.5,-,N/A,,Overcast,300,2012-11-11 22:35:00
4:55 PM,53.6,48.2,82,29.98,10.0,NW,8.1,-,N/A,,Overcast,310,2012-11-11 22:55:00
5:15 PM,53.6,48.2,82,30.00,10.0,NW,8.1,-,N/A,,Overcast,310,2012-11-11 23:15:00
5:35 PM,53.6,48.2,82,30.02,10.0,NW,8.1,-,N/A,,Overcast,320,2012-11-11 23:35:00
5:55 PM,53.6,48.2,82,30.03,10.0,NW,5.8,-,N/A,,Overcast,310,2012-11-11 23:55:00
6:15 PM,53.6,48.2,82,30.04,10.0,NW,5.8,-,N/A,,Overcast,310,2012-11-12 00:15:00
6:35 PM,53.6,46.4,77,30.05,10.0,NW,4.6,-,N/A,,Overcast,310,2012-11-12 00:35:00
6:55 PM,53.6,46.4,77,30.06,10.0,NW,8.1,-,N/A,,Overcast,320,2012-11-12 00:55:00
7:15 PM,53.6,46.4,77,30.07,10.0,NNW,9.2,-,N/A,,Overcast,330,2012-11-12 01:15:00
7:35 PM,51.8,46.4,82,30.08,10.0,NW,9.2,-,N/A,,Overcast,320,2012-11-12 01:35:00
7:55 PM,51.8,46.4,82,30.10,10.0,NNW,13.8,17.3,N/A,,Overcast,340,2012-11-12 01:55:00
8:15 PM,50.0,44.6,82,30.11,10.0,NNW,5.8,-,N/A,,Overcast,330,2012-11-12 02:15:00
8:35 PM,50.0,44.6,82,30.12,10.0,NNW,8.1,-,N/A,,Overcast,330,2012-11-12 02:35:00
8:55 PM,50.0,44.6,82,30.13,10.0,NNW,9.2,-,N/A,,Overcast,340,2012-11-12 02:55:00
9:15 PM,48.2,44.6,87,30.16,10.0,NW,8.1,-,N/A,,Overcast,320,2012-11-12 03:15:00
9:35 PM,48.2,44.6,87,30.17,10.0,NW,11.5,-,N/A,,Overcast,320,2012-11-12 03:35:00
9:55 PM,46.4,42.8,87,30.18,10.0,NNW,10.4,-,N/A,,Mostly Cloudy,340,2012-11-12 03:55:00
10:15 PM,46.4,41.0,81,30.20,10.0,NW,6.9,-,N/A,,Overcast,310,2012-11-12 04:15:00
10:35 PM,46.4,41.0,81,30.19,10.0,NW,9.2,-,N/A,,Overcast,320,2012-11-12 04:35:00
10:55 PM,44.6,41.0,87,30.20,10.0,NW,9.2,-,N/A,,Overcast,320,2012-11-12 04:55:00
11:15 PM,44.6,39.2,81,30.21,10.0,NNW,13.8,17.3,N/A,,Mostly Cloudy,330,2012-11-12 05:15:00
11:35 PM,44.6,37.4,76,30.21,10.0,NNW,10.4,-,N/A,,Mostly Cloudy,330,2012-11-12 05:35:00
11:55 PM,44.6,35.6,71,30.23,10.0,North,12.7,19.6,N/A,,Overcast,350,2012-11-12 05:55:00